Haleyville, AL

12:25 PM CDT on July 24, 2016 (GMT -0500)
Haleyville

Weather History for K1M4 - February, 2013

Change the Weather History Date:

Wednesday, February 20, 2013

  Actual Average (KJFX) Record (KJFX)
Temperature  
Mean Temperature 31 °F -  
Max Temperature 36 °F 58 °F 78 °F (1986)
Min Temperature 26 °F 32 °F 14 °F (1978)
Degree Days  
Heating Degree Days 34    
Moisture  
Dew Point 19 °F    
Average Humidity 60    
Maximum Humidity 85    
Minimum Humidity 39    
Precipitation  
Precipitation 0.01 in - - ()
Sea Level Pressure  
Sea Level Pressure 30.27 in    
Wind  
Wind Speed 4 mph (NNE)    
Max Wind Speed 8 mph    
Max Gust Speed -    
Visibility 10 miles    
Events Rain    
Averages and records for this station are not official NWS values.
T = Trace of Precipitation, MM = Missing Value Source: NWS Daily Summary

Daily Weather History Graph

Daily Weather History Graph

Search for Another Location

Airport or City:

Trip Planner

Search our weather history database for the weather conditions in past years. The results will help you decide how hot, cold, wet, or windy it might be!

Date:

Astronomy

Feb. 20, 2013 Rise Set
Actual Time 6:29 AM CST 5:38 PM CST
Civil Twilight 6:04 AM CST 6:04 PM CST
Nautical Twilight 5:35 AM CST 6:33 PM CST
Astronomical Twilight 5:05 AM CST 7:02 PM CST
Moon 1:07 PM CST (2/20) 2:41 AM CST (2/20)
Length of Visible Light 12h 00m
Length of Day
11h 09m
Waxing Gibbous, 76% of the Moon is Illuminated
Feb 20
Waxing Gibbous
Feb 25
Full
Mar 4
Last Quarter
Mar 11
New
Mar 19
First Quarter

Hourly Weather History & Observations

Time (CST) Temp. Windchill Dew Point Humidity Pressure Visibility Wind Dir Wind Speed Gust Speed Precip Events Conditions
12:56 AM 26.1 °F - 22.1 °F 85% 30.28 in 10.0 mi Calm Calm - N/A   Clear
1:56 AM 27.1 °F - 22.1 °F 81% 30.27 in 10.0 mi Calm Calm - N/A   Clear
2:56 AM 28.0 °F 24.2 °F 22.1 °F 78% 30.27 in 10.0 mi NW 3.5 mph - N/A   Clear
5:56 AM 27.1 °F 23.2 °F 18.1 °F 69% 30.30 in 10.0 mi NNE 3.5 mph - N/A   Clear
6:56 AM 27.1 °F 21.8 °F 18.1 °F 69% 30.30 in 10.0 mi NNE 4.6 mph - N/A   Clear
7:56 AM 30.0 °F 23.2 °F 19.0 °F 64% 30.30 in 10.0 mi Variable 6.9 mph - N/A   Clear
8:56 AM 32.0 °F 25.6 °F 18.1 °F 57% 30.32 in 10.0 mi North 6.9 mph - N/A   Clear
9:56 AM 32.9 °F 26.7 °F 18.1 °F 55% 30.32 in 10.0 mi NNE 6.9 mph - N/A   Clear
10:56 AM 34.9 °F 28.3 °F 13.1 °F 41% 30.35 in 10.0 mi North 8.1 mph - N/A   Clear
11:56 AM 36.0 °F 29.6 °F 13.1 °F 39% 30.31 in 10.0 mi North 8.1 mph - N/A   Clear
12:56 PM 34.9 °F 29.9 °F 13.1 °F 41% 30.30 in 10.0 mi NNE 5.8 mph - N/A   Clear
1:56 PM 34.0 °F 28.0 °F 18.1 °F 52% 30.29 in 7.0 mi NE 6.9 mph - 0.00 in Rain Rain
2:12 PM 33.8 °F 29.6 °F 21.2 °F 60% 30.28 in 6.0 mi North 4.6 mph - 0.00 in Rain Rain
2:29 PM 33.8 °F 30.8 °F 26.6 °F 75% 30.27 in 7.0 mi North 3.5 mph - 0.01 in Rain Light Rain
2:56 PM 32.9 °F - 24.1 °F 70% 30.28 in 10.0 mi Calm Calm - 0.01 in Rain Light Rain
3:56 PM 34.9 °F 28.3 °F 21.0 °F 57% 30.22 in 10.0 mi NNE 8.1 mph - 0.00 in   Scattered Clouds
4:56 PM 34.9 °F 29.0 °F 19.0 °F 52% 30.23 in 10.0 mi NNE 6.9 mph - N/A   Partly Cloudy
5:56 PM 34.0 °F 31.0 °F 18.1 °F 52% 30.22 in 10.0 mi NNE 3.5 mph - N/A   Scattered Clouds
6:56 PM 34.0 °F 29.8 °F 19.0 °F 54% 30.24 in 10.0 mi NE 4.6 mph - N/A   Mostly Cloudy
7:56 PM 34.0 °F 29.8 °F 17.1 °F 50% 30.24 in 10.0 mi North 4.6 mph - N/A   Mostly Cloudy
8:56 PM 34.0 °F 29.8 °F 18.1 °F 52% 30.26 in 10.0 mi NNE 4.6 mph - N/A   Overcast
9:56 PM 32.9 °F 28.5 °F 20.1 °F 59% 30.24 in 10.0 mi ENE 4.6 mph - N/A   Mostly Cloudy
10:56 PM 32.9 °F 27.5 °F 21.0 °F 62% 30.22 in 10.0 mi NE 5.8 mph - N/A   Overcast
11:56 PM 32.9 °F 27.5 °F 21.0 °F 62% 30.20 in 10.0 mi NE 5.8 mph - N/A   Mostly Cloudy